Location: Hains Lake
(37.8540°N, 99.8578°W)
Time: 16:29:35
(UTC+00:00)

Vanguard 1 - Pass Details

Date: 08 December 2021
Orbit: 652 x 3830 km, 34.2° (Epoch: 22 January)

Event Time Altitude Azimuth Distance (km) Brightness Sun altitude
Rises 06:03:53 0° 247° (WSW) 6,720 14.3 -73.8°
Enters shadow 06:06:41 - 246° (WSW) 6,209 14.1 -74.0°
Exits shadow 06:47:33 19° 87° (E) 5,734 13.8 -74.5°
Drops below altitude 10° 06:51:12 10° 86° (E) 6,332 14.2 -74.3°
Sets 06:55:26 0° 85° (E) 7,069 14.5 -74.0°
